Location: Unspecified
(0.0000°N, 0.0000°E)
Time: 19:53:41
(UTC+00:00)

USA 200 - Pass Details

Date: 11 June 2023
Orbit: 1801 x 38554 km, 63.7° (Epoch: 28 February)

Event Time Altitude Azimuth Distance (km) Brightness Sun altitude
Rises 15:04:39 0° 228° (SW) 7,785 ? 39.5°
Reaches altitude 10° 15:08:12 10° 235° (SW) 7,621 ? 38.7°
Maximum altitude 02:13:06 67° 260° (W) 7,051 ? -50.2°
Enters shadow 02:14:12 67° 253° (WSW) 6,807 ? -50.0°
